Time,TemperatureF,DewpointF,PressureIn,WindDirection,WindDirectionDegrees,WindSpeedMPH,WindSpeedGustMPH,Humidity,HourlyPrecipIn,Conditions,Clouds,dailyrainin,SoftwareType,DateUTC
2013-05-27 00:04:00,50.9,50.4,30.05,NNW,337,0.0,-999.0,98,-99.99,,,0.00,Acu-Link.com,2013-05-27 04:04:00,
2013-05-27 00:19:00,50.7,50.2,30.05,NE,45,0.0,-999.0,98,-99.99,,,0.00,Acu-Link.com,2013-05-27 04:19:00,
2013-05-27 00:34:00,50.4,49.9,30.05,WNW,292,0.0,-999.0,98,-99.99,,,0.00,Acu-Link.com,2013-05-27 04:34:00,
2013-05-27 00:49:00,49.6,49.1,30.05,WNW,292,0.0,-999.0,98,-99.99,,,0.00,Acu-Link.com,2013-05-27 04:49:00,
2013-05-27 01:04:00,48.6,48.1,30.06,East,90,0.0,-999.0,98,-99.99,,,0.00,Acu-Link.com,2013-05-27 05:04:00,
2013-05-27 01:19:00,48.2,47.7,30.06,East,90,0.0,-999.0,98,-99.99,,,0.00,Acu-Link.com,2013-05-27 05:19:00,
2013-05-27 01:34:00,46.9,46.4,30.06,East,90,0.0,-999.0,98,-99.99,,,0.00,Acu-Link.com,2013-05-27 05:34:00,
2013-05-27 01:49:00,46.9,46.4,30.06,ENE,67,0.0,-999.0,98,-99.99,,,0.00,Acu-Link.com,2013-05-27 05:49:00,
2013-05-27 02:04:00,46.6,46.1,30.06,WNW,292,0.0,-999.0,98,-99.99,,,0.00,Acu-Link.com,2013-05-27 06:04:00,
2013-05-27 02:19:00,45.9,45.4,30.06,NNE,22,0.0,-999.0,98,-99.99,,,0.00,Acu-Link.com,2013-05-27 06:19:00,
2013-05-27 02:35:00,45.5,45.0,30.06,West,270,0.0,-999.0,98,-99.99,,,0.00,Acu-Link.com,2013-05-27 06:35:00,
2013-05-27 02:50:00,44.8,44.3,30.06,WNW,292,0.0,-999.0,98,-99.99,,,0.00,Acu-Link.com,2013-05-27 06:50:00,
2013-05-27 03:05:00,44.8,44.3,30.06,WNW,292,0.0,-999.0,98,-99.99,,,0.00,Acu-Link.com,2013-05-27 07:05:00,
2013-05-27 03:20:00,43.9,43.4,30.07,ENE,67,0.0,-999.0,98,-99.99,,,0.00,Acu-Link.com,2013-05-27 07:20:00,
2013-05-27 03:35:00,43.7,43.2,30.06,NNE,22,0.0,-999.0,98,-99.99,,,0.00,Acu-Link.com,2013-05-27 07:35:00,
2013-05-27 03:50:00,43.0,42.5,30.06,ENE,67,0.0,-999.0,98,-99.99,,,0.00,Acu-Link.com,2013-05-27 07:50:00,
2013-05-27 04:06:00,42.8,42.3,30.06,ENE,67,0.0,-999.0,98,-99.99,,,0.00,Acu-Link.com,2013-05-27 08:06:00,
2013-05-27 04:21:00,42.8,42.3,30.06,ENE,67,0.0,-999.0,98,-99.99,,,0.00,Acu-Link.com,2013-05-27 08:21:00,
2013-05-27 04:36:00,43.0,42.5,30.06,East,90,0.0,-999.0,98,-99.99,,,0.00,Acu-Link.com,2013-05-27 08:36:00,
2013-05-27 04:51:00,43.2,42.7,30.07,ENE,67,0.0,-999.0,98,-99.99,,,0.00,Acu-Link.com,2013-05-27 08:51:00,
2013-05-27 05:06:00,44.6,44.1,30.07,NE,45,0.0,-999.0,98,-99.99,,,0.00,Acu-Link.com,2013-05-27 09:06:00,
2013-05-27 05:22:00,45.1,44.6,30.08,NE,45,0.0,-999.0,98,-99.99,,,0.00,Acu-Link.com,2013-05-27 09:22:00,
2013-05-27 05:37:00,45.1,44.6,30.08,NE,45,0.0,-999.0,98,-99.99,,,0.00,Acu-Link.com,2013-05-27 09:37:00,
2013-05-27 05:52:00,45.1,44.6,30.09,NE,45,0.0,-999.0,98,-99.99,,,0.00,Acu-Link.com,2013-05-27 09:52:00,
2013-05-27 06:07:00,45.5,45.0,30.09,NE,45,0.0,-999.0,98,-99.99,,,0.00,Acu-Link.com,2013-05-27 10:07:00,
2013-05-27 06:22:00,45.5,45.0,30.09,NE,45,0.0,-999.0,98,-99.99,,,0.00,Acu-Link.com,2013-05-27 10:22:00,
2013-05-27 06:38:00,45.5,45.0,30.10,NE,45,0.0,-999.0,98,-99.99,,,0.00,Acu-Link.com,2013-05-27 10:38:00,
2013-05-27 06:53:00,46.2,45.7,30.10,WNW,292,0.0,-999.0,98,-99.99,,,0.00,Acu-Link.com,2013-05-27 10:53:00,
2013-05-27 07:08:00,47.5,47.0,30.11,North,0,0.0,-999.0,98,-99.99,,,0.00,Acu-Link.com,2013-05-27 11:08:00,
2013-05-27 07:23:00,50.5,50.0,30.11,WNW,292,0.0,-999.0,98,-99.99,,,0.00,Acu-Link.com,2013-05-27 11:23:00,
2013-05-27 07:38:00,54.7,54.1,30.11,SSE,157,0.0,-999.0,98,-99.99,,,0.00,Acu-Link.com,2013-05-27 11:38:00,
2013-05-27 07:53:00,57.6,57.0,30.11,East,90,0.0,-999.0,98,-99.99,,,0.00,Acu-Link.com,2013-05-27 11:53:00,
2013-05-27 08:08:00,58.8,58.2,30.11,ENE,67,0.0,-999.0,98,-99.99,,,0.00,Acu-Link.com,2013-05-27 12:08:00,
2013-05-27 08:23:00,62.8,62.2,30.12,South,180,0.0,-999.0,98,-99.99,,,0.00,Acu-Link.com,2013-05-27 12:23:00,
2013-05-27 08:38:00,60.8,60.2,30.11,NW,315,1.1,-999.0,98,-99.99,,,0.00,Acu-Link.com,2013-05-27 12:38:00,
2013-05-27 08:53:00,61.9,61.3,30.11,NW,315,0.0,-999.0,98,-99.99,,,0.00,Acu-Link.com,2013-05-27 12:53:00,
2013-05-27 09:09:00,66.2,65.6,30.10,SSW,202,1.7,-999.0,98,-99.99,,,0.00,Acu-Link.com,2013-05-27 13:09:00,
2013-05-27 09:24:00,69.8,69.2,30.10,East,90,0.0,-999.0,98,-99.99,,,0.00,Acu-Link.com,2013-05-27 13:24:00,
2013-05-27 09:39:00,68.2,67.6,30.10,West,270,2.7,-999.0,98,-99.99,,,0.00,Acu-Link.com,2013-05-27 13:39:00,
2013-05-27 09:54:00,68.2,67.6,30.10,WNW,292,2.2,-999.0,98,-99.99,,,0.00,Acu-Link.com,2013-05-27 13:54:00,
2013-05-27 10:09:00,66.7,66.1,30.09,West,270,4.2,-999.0,98,-99.99,,,0.00,Acu-Link.com,2013-05-27 14:09:00,
2013-05-27 10:24:00,67.1,66.5,30.09,NE,45,0.0,-999.0,98,-99.99,,,0.00,Acu-Link.com,2013-05-27 14:24:00,
2013-05-27 10:39:00,68.7,68.1,30.09,WSW,247,0.0,-999.0,98,-99.99,,,0.00,Acu-Link.com,2013-05-27 14:39:00,
2013-05-27 10:54:00,68.9,68.3,30.09,SSW,202,0.0,-999.0,98,-99.99,,,0.00,Acu-Link.com,2013-05-27 14:54:00,
2013-05-27 11:09:00,66.9,66.3,30.09,NE,45,2.2,-999.0,98,-99.99,,,0.00,Acu-Link.com,2013-05-27 15:09:00,
2013-05-27 11:25:00,68.4,67.8,30.09,SSW,202,0.0,-999.0,98,-99.99,,,0.00,Acu-Link.com,2013-05-27 15:25:00,
2013-05-27 11:40:00,68.5,67.9,30.09,WSW,247,1.1,-999.0,98,-99.99,,,0.00,Acu-Link.com,2013-05-27 15:40:00,
2013-05-27 11:55:00,70.0,69.4,30.08,West,270,2.2,-999.0,98,-99.99,,,0.00,Acu-Link.com,2013-05-27 15:55:00,
2013-05-27 12:10:00,70.0,69.4,30.09,NW,315,2.2,-999.0,98,-99.99,,,0.00,Acu-Link.com,2013-05-27 16:10:00,
2013-05-27 12:25:00,69.6,69.0,30.08,WSW,247,1.7,-999.0,98,-99.99,,,0.00,Acu-Link.com,2013-05-27 16:25:00,
2013-05-27 12:40:00,74.8,74.2,30.07,SW,225,2.7,-999.0,98,-99.99,,,0.00,Acu-Link.com,2013-05-27 16:40:00,
2013-05-27 12:55:00,76.3,75.7,30.07,SSW,202,1.1,-999.0,98,-99.99,,,0.00,Acu-Link.com,2013-05-27 16:55:00,
2013-05-27 13:10:00,80.2,79.6,30.06,WSW,247,3.2,-999.0,98,-99.99,,,0.00,Acu-Link.com,2013-05-27 17:10:00,
2013-05-27 13:25:00,78.8,78.2,30.05,SSW,202,4.2,-999.0,98,-99.99,,,0.00,Acu-Link.com,2013-05-27 17:25:00,
2013-05-27 13:41:00,79.0,78.4,30.05,South,180,2.7,-999.0,98,-99.99,,,0.00,Acu-Link.com,2013-05-27 17:41:00,
2013-05-27 13:56:00,79.3,78.7,30.05,NE,45,2.7,-999.0,98,-99.99,,,0.00,Acu-Link.com,2013-05-27 17:56:00,
2013-05-27 14:11:00,82.4,81.8,30.04,NNE,22,2.2,-999.0,98,-99.99,,,0.00,Acu-Link.com,2013-05-27 18:11:00,
2013-05-27 14:26:00,82.9,82.3,30.03,South,180,2.7,-999.0,98,-99.99,,,0.00,Acu-Link.com,2013-05-27 18:26:00,
2013-05-27 14:41:00,79.5,78.9,30.03,East,90,4.7,-999.0,98,-99.99,,,0.00,Acu-Link.com,2013-05-27 18:41:00,
2013-05-27 14:56:00,81.5,80.9,30.02,ESE,112,2.2,-999.0,98,-99.99,,,0.00,Acu-Link.com,2013-05-27 18:56:00,
2013-05-27 15:11:00,84.0,83.4,30.01,ESE,112,3.7,-999.0,98,-99.99,,,0.00,Acu-Link.com,2013-05-27 19:11:00,
2013-05-27 15:26:00,83.1,82.5,30.01,South,180,4.2,-999.0,98,-99.99,,,0.00,Acu-Link.com,2013-05-27 19:26:00,
2013-05-27 15:41:00,84.6,84.0,30.00,South,180,4.2,-999.0,98,-99.99,,,0.00,Acu-Link.com,2013-05-27 19:41:00,
2013-05-27 15:57:00,84.4,83.8,30.00,ESE,112,1.7,-999.0,98,-99.99,,,0.00,Acu-Link.com,2013-05-27 19:57:00,
2013-05-27 16:12:00,87.1,86.5,30.00,WSW,247,3.2,-999.0,98,-99.99,,,0.00,Acu-Link.com,2013-05-27 20:12:00,
2013-05-27 16:27:00,86.0,85.4,29.98,SSE,157,3.7,-999.0,98,-99.99,,,0.00,Acu-Link.com,2013-05-27 20:27:00,
2013-05-27 16:42:00,85.6,85.0,29.98,ENE,67,1.1,-999.0,98,-99.99,,,0.00,Acu-Link.com,2013-05-27 20:42:00,
2013-05-27 16:57:00,87.6,87.0,29.97,NE,45,2.7,-999.0,98,-99.99,,,0.00,Acu-Link.com,2013-05-27 20:57:00,
2013-05-27 17:12:00,87.4,86.8,29.97,SW,225,4.2,-999.0,98,-99.99,,,0.00,Acu-Link.com,2013-05-27 21:12:00,
2013-05-27 17:27:00,84.2,83.6,29.97,WSW,247,1.1,-999.0,98,-99.99,,,0.00,Acu-Link.com,2013-05-27 21:27:00,
2013-05-27 17:42:00,85.8,85.2,29.97,East,90,4.2,-999.0,98,-99.99,,,0.00,Acu-Link.com,2013-05-27 21:42:00,
2013-05-27 17:57:00,86.4,85.8,29.97,ESE,112,1.7,-999.0,98,-99.99,,,0.00,Acu-Link.com,2013-05-27 21:57:00,
2013-05-27 18:13:00,86.7,86.1,29.97,East,90,0.0,-999.0,98,-99.99,,,0.00,Acu-Link.com,2013-05-27 22:13:00,
2013-05-27 18:28:00,84.2,83.6,29.97,West,270,0.0,-999.0,98,-99.99,,,0.00,Acu-Link.com,2013-05-27 22:28:00,
2013-05-27 18:43:00,83.3,82.7,29.96,ESE,112,3.2,-999.0,98,-99.99,,,0.00,Acu-Link.com,2013-05-27 22:43:00,
2013-05-27 18:58:00,79.9,79.3,29.97,ENE,67,0.0,-999.0,98,-99.99,,,0.00,Acu-Link.com,2013-05-27 22:58:00,
2013-05-27 19:13:00,77.4,76.8,29.96,SSW,202,2.7,-999.0,98,-99.99,,,0.00,Acu-Link.com,2013-05-27 23:13:00,
2013-05-27 19:28:00,75.4,74.8,29.95,ESE,112,2.2,-999.0,98,-99.99,,,0.00,Acu-Link.com,2013-05-27 23:28:00,
2013-05-27 19:43:00,72.7,72.1,29.96,SSW,202,2.2,-999.0,98,-99.99,,,0.00,Acu-Link.com,2013-05-27 23:43:00,
2013-05-27 19:58:00,71.6,71.0,29.95,SW,225,1.7,-999.0,98,-99.99,,,0.00,Acu-Link.com,2013-05-27 23:58:00,
2013-05-27 20:13:00,69.8,69.2,29.96,WNW,292,0.0,-999.0,98,-99.99,,,0.00,Acu-Link.com,2013-05-28 00:13:00,
2013-05-27 20:29:00,68.4,67.8,29.96,WSW,247,0.0,-999.0,98,-99.99,,,0.00,Acu-Link.com,2013-05-28 00:29:00,
2013-05-27 20:44:00,67.5,66.9,29.95,SSE,157,1.1,-999.0,98,-99.99,,,0.00,Acu-Link.com,2013-05-28 00:44:00,
2013-05-27 20:59:00,67.1,66.5,29.96,ENE,67,0.0,-999.0,98,-99.99,,,0.00,Acu-Link.com,2013-05-28 00:59:00,
2013-05-27 21:14:00,67.1,66.5,29.98,ESE,112,0.0,-999.0,98,-99.99,,,0.00,Acu-Link.com,2013-05-28 01:14:00,
2013-05-27 21:29:00,66.7,66.1,29.98,ESE,112,0.0,-999.0,98,-99.99,,,0.00,Acu-Link.com,2013-05-28 01:29:00,
2013-05-27 21:44:00,65.8,65.2,29.99,ENE,67,0.0,-999.0,98,-99.99,,,0.00,Acu-Link.com,2013-05-28 01:44:00,
2013-05-27 21:59:00,64.9,64.3,30.00,West,270,0.0,-999.0,98,-99.99,,,0.00,Acu-Link.com,2013-05-28 01:59:00,
2013-05-27 22:14:00,64.2,63.6,30.01,West,270,0.0,-999.0,98,-99.99,,,0.00,Acu-Link.com,2013-05-28 02:14:00,
2013-05-27 22:29:00,64.8,64.2,30.02,SSW,202,0.0,-999.0,98,-99.99,,,0.00,Acu-Link.com,2013-05-28 02:29:00,
2013-05-27 22:44:00,64.8,64.2,30.01,East,90,0.0,-999.0,98,-99.99,,,0.00,Acu-Link.com,2013-05-28 02:44:00,
2013-05-27 23:00:00,64.8,64.2,30.01,East,90,0.0,-999.0,98,-99.99,,,0.00,Acu-Link.com,2013-05-28 03:00:00,
2013-05-27 23:15:00,64.8,64.2,30.01,SSW,202,0.0,-999.0,98,-99.99,,,0.00,Acu-Link.com,2013-05-28 03:15:00,
2013-05-27 23:30:00,64.9,64.3,30.01,NNW,337,0.0,-999.0,98,-99.99,,,0.00,Acu-Link.com,2013-05-28 03:30:00,
2013-05-27 23:45:00,64.9,64.3,30.01,ENE,67,0.0,-999.0,98,-99.99,,,0.00,Acu-Link.com,2013-05-28 03:45:00,